Temp
11 12 12 12 12 12 12 13 13 13 13 13 13 14 14 14 14 15 16 15 16 16 16 16 16 15 15 15 14 14 13 16 15 15 13 13 14 12 13 14 12 11 11 12 12
11 11 11 11 12 12 12 12 12 12 13 13 13 13 14 14 15 15 15 15 16 16 16 16 16 16 15 16 16 14 14 16 16 15 14 14 15 14 14 13 12 12 11 12 12
11 11 11 11 11 12 12 12 12 12 12 12 13 13 13 14 15 15 15 16 16 16 16 16 16 16 16 17 16 15 16 16 16 15 15 15 14 14 14 13 13 13 13 12 12
11 11 11 11 11 11 11 12 12 12 12 12 12 12 13 13 14 15 15 16 16 16 16 16 16 16 17 17 16 16 17 17 16 16 16 14 14 14 13 13 12 13 13 12 12
11 11 11 11 11 12 12 12 12 12 12 12 12 12 13 13 15 13 14 15 16 16 17 16 16 16 17 17 17 18 17 17 17 16 15 14 14 15 13 13 13 13 12 12 12
10 11 11 11 11 11 12 12 12 12 12 12 12 12 12 14 13 14 15 15 15 16 17 17 17 16 17 17 16 17 17 17 17 16 15 15 15 15 13 14 13 13 12 12 12
10 10 11 11 11 11 11 12 12 12 12 12 12 12 13 16 13 13 14 15 15 16 17 17 16 16 16 17 16 16 16 17 17 16 15 16 15 15 15 13 13 12 12 12 11
10 10 10 11 11 11 11 11 12 12 12 12 12 12 15 15 13 14 14 14 15 16 16 17 16 16 16 17 17 16 17 17 17 16 16 17 15 15 15 14 14 13 13 12 12
9 10 10 10 11 11 11 12 12 12 12 12 12 13 14 14 14 14 14 14 14 16 15 16 16 16 16 17 17 17 17 18 17 17 17 16 15 14 14 14 14 14 14 13 12
9 9 10 10 11 11 11 11 12 12 12 12 12 12 13 14 13 14 14 13 14 14 14 15 15 16 16 16 17 17 17 17 17 17 17 16 16 16 16 15 15 15 14 12 13
8 8 9 9 10 11 10 11 11 11 12 12 13 14 13 13 13 13 13 12 12 12 13 14 15 16 17 17 17 17 16 17 17 18 17 17 17 17 16 15 15 16 14 14 13
7 7 8 8 8 9 10 10 10 10 13 13 13 14 14 13 13 13 12 12 12 12 12 13 14 17 17 17 17 16 17 17 18 17 17 17 17 17 17 18 17 17 16 14 14
6 6 7 7 7 8 9 9 9 11 11 15 14 14 15 13 13 14 12 13 12 12 12 13 15 15 16 17 16 16 17 17 17 17 17 17 16 16 16 16 16 16 16 15 16
5 5 6 7 7 7 7 8 8 9 9 14 15 16 16 13 13 13 12 12 12 12 12 12 14 15 15 16 16 16 17 17 17 17 18 17 16 16 17 17 16 16 16 16 16
4 4 5 5 6 5 6 7 6 7 6 15 15 14 15 15 15 13 13 12 13 12 12 13 14 14 14 16 16 17 18 17 17 18 18 17 17 18 17 17 16 17 17 17 17
2 3 4 4 5 5 5 6 5 6 6 14 14 15 15 14 14 13 13 13 13 12 13 13 14 15 16 17 16 18 17 17 17 18 17 18 18 18 18 18 18 18 18 17 17
1 2 2 4 4 4 5 5 5 5 11 13 13 14 15 15 14 13 13 13 13 12 13 13 14 15 15 15 16 17 17 17 15 14 13 18 17 19 20 20 19 20 19 19 18
0 1 2 2 3 3 4 3 3 7 11 12 12 13 13 15 13 13 13 13 13 13 13 13 14 15 15 16 16 17 17 16 13 12 16 19 17 20 20 20 20 20 20 19 19
-1 0 1 1 2 2 3 2 4 8 6 8 11 12 13 14 14 14 13 13 13 13 13 13 13 15 16 16 16 17 17 18 18 18 16 18 20 20 21 21 21 20 19 19 19
-2 -1 -0 0 1 1 1 2 4 6 6 6 7 8 10 11 13 13 14 13 13 13 13 14 14 15 16 16 16 17 18 17 17 13 14 18 19 20 21 21 21 20 20 19 19
-3 -1 -1 -1 -1 -1 -0 0 2 6 3 3 5 4 5 7 9 11 13 14 14 14 14 14 14 15 16 16 16 17 17 17 18 18 12 12 18 20 21 21 21 21 20 20 20
-3 -2 -2 -2 -2 -2 -1 -0 1 4 3 2 3 4 5 6 7 9 12 14 15 14 14 14 14 14 15 16 16 17 17 18 17 17 18 18 19 20 20 20 21 21 20 20 20
-3 -3 -3 -3 -3 -2 -2 -1 -1 -0 0 1 2 4 6 6 5 9 11 12 13 14 14 14 14 15 15 16 16 16 17 18 18 18 18 16 19 19 20 20 20 20 20 20 20
-5 -5 -3 -4 -5 -4 -3 -2 -1 -0 0 1 2 3 5 6 7 7 9 11 13 14 14 14 15 14 14 15 16 16 17 18 18 18 18 18 19 19 19 20 20 20 20 20 20
-7 -7 -7 -5 -5 -5 -5 -3 -2 -1 1 1 2 3 4 6 6 7 8 10 10 13 14 14 14 15 16 16 16 16 17 18 18 18 18 18 19 19 19 20 20 20 20 20 20
-8 -8 -7 -7 -7 -6 -6 -4 -2 -1 -3 -0 0 1 4 5 5 6 7 9 11 12 13 14 15 15 16 16 16 16 16 17 18 18 18 19 19 19 19 20 20 20 20 20 20
-8 -8 -8 -8 -7 -7 -6 -5 -4 -4 -2 -2 -2 -0 1 2 3 5 6 8 9 11 11 12 13 15 15 16 16 16 17 17 17 18 18 18 19 19 19 19 19 20 19 20 20
Height
3175 3174 3173 3172 3172 3172 3171 3170 3170 3169 3169 3169 3169 3168 3168 3169 3170 3171 3173 3177 3177 3178 3180 3182 3184 3185 3182 3184 3184 3184 3183 3181 3182 3180 3179 3183 3183 3185 3184 3183 3185 3188 3189 3191 3190
3169 3168 3168 3167 3166 3166 3165 3165 3164 3164 3163 3163 3163 3163 3163 3163 3164 3166 3169 3170 3173 3176 3178 3180 3182 3182 3180 3183 3183 3182 3181 3182 3186 3181 3181 3183 3183 3183 3184 3183 3185 3186 3187 3190 3191
3165 3163 3162 3161 3161 3160 3160 3159 3159 3159 3159 3158 3158 3158 3159 3158 3160 3161 3162 3165 3168 3172 3175 3176 3179 3178 3178 3183 3184 3181 3179 3180 3183 3182 3183 3182 3182 3182 3183 3184 3185 3185 3186 3189 3191
3161 3159 3158 3157 3156 3155 3155 3154 3154 3154 3153 3153 3153 3153 3153 3154 3158 3157 3159 3161 3164 3167 3171 3173 3176 3175 3176 3180 3180 3177 3175 3177 3181 3184 3184 3183 3180 3182 3184 3184 3185 3185 3188 3189 3191
3156 3155 3153 3152 3151 3150 3149 3148 3148 3148 3148 3148 3148 3148 3148 3149 3153 3153 3154 3157 3159 3163 3168 3170 3173 3175 3174 3176 3176 3173 3178 3179 3181 3183 3183 3183 3182 3183 3185 3185 3185 3186 3188 3189 3192
3152 3150 3149 3147 3146 3145 3144 3143 3142 3142 3142 3142 3142 3142 3142 3143 3146 3147 3150 3153 3156 3159 3164 3168 3171 3173 3172 3174 3178 3177 3180 3178 3180 3182 3182 3184 3186 3187 3185 3185 3185 3185 3188 3190 3192
3147 3146 3144 3142 3141 3140 3139 3138 3137 3136 3136 3136 3137 3136 3134 3140 3143 3143 3145 3148 3150 3155 3159 3164 3168 3169 3171 3173 3177 3177 3180 3179 3179 3181 3182 3183 3186 3186 3184 3183 3184 3185 3188 3189 3191
3143 3141 3139 3138 3136 3135 3134 3132 3131 3131 3130 3131 3131 3131 3125 3135 3136 3135 3140 3144 3146 3149 3154 3160 3164 3166 3168 3171 3172 3178 3179 3179 3179 3180 3182 3183 3183 3183 3183 3183 3183 3184 3185 3187 3189
3137 3136 3134 3132 3130 3130 3129 3127 3126 3125 3126 3125 3125 3125 3123 3127 3130 3134 3134 3139 3142 3145 3150 3156 3159 3163 3166 3167 3169 3172 3175 3176 3179 3181 3180 3183 3182 3181 3182 3183 3185 3185 3185 3186 3189
3131 3130 3129 3127 3125 3124 3124 3122 3120 3119 3120 3120 3119 3124 3123 3125 3125 3127 3129 3134 3138 3140 3146 3150 3154 3157 3161 3164 3165 3169 3170 3174 3176 3180 3179 3178 3180 3180 3180 3182 3183 3184 3185 3185 3186
3125 3123 3122 3121 3119 3118 3119 3117 3117 3114 3111 3112 3112 3114 3119 3117 3119 3121 3125 3129 3134 3136 3140 3145 3148 3148 3157 3162 3166 3169 3171 3174 3176 3175 3177 3178 3179 3181 3182 3183 3182 3181 3180 3182 3184
3119 3116 3115 3115 3113 3113 3112 3110 3109 3105 3102 3103 3107 3106 3113 3116 3115 3117 3121 3125 3127 3130 3137 3142 3139 3148 3156 3161 3164 3168 3170 3171 3173 3175 3178 3178 3177 3179 3180 3180 3181 3182 3181 3179 3182
3113 3110 3109 3109 3107 3107 3106 3106 3106 3102 3097 3095 3100 3099 3105 3108 3108 3112 3115 3120 3123 3127 3130 3132 3137 3146 3151 3155 3160 3164 3166 3168 3171 3175 3177 3179 3177 3177 3178 3180 3180 3181 3182 3181 3181
3107 3105 3102 3103 3104 3101 3099 3102 3102 3101 3096 3087 3088 3090 3095 3100 3099 3107 3110 3116 3120 3122 3128 3132 3138 3142 3146 3149 3156 3158 3162 3165 3169 3174 3172 3176 3177 3175 3175 3175 3176 3179 3179 3180 3180
3100 3099 3097 3094 3098 3095 3096 3097 3098 3100 3099 3085 3081 3081 3083 3088 3095 3097 3105 3110 3113 3118 3124 3125 3129 3136 3139 3143 3153 3153 3159 3164 3166 3168 3169 3170 3174 3169 3172 3172 3171 3173 3175 3177 3178
3093 3092 3090 3090 3090 3089 3090 3092 3096 3101 3089 3081 3078 3078 3078 3083 3089 3097 3101 3108 3113 3118 3121 3124 3128 3133 3135 3142 3148 3151 3155 3160 3161 3160 3162 3163 3168 3159 3164 3162 3164 3169 3171 3173 3176
3086 3084 3082 3084 3086 3081 3083 3087 3093 3088 3081 3078 3076 3075 3076 3077 3086 3090 3093 3098 3102 3109 3112 3119 3122 3127 3133 3138 3142 3147 3152 3154 3159 3160 3157 3157 3162 3154 3155 3155 3159 3162 3164 3168 3172
3078 3076 3078 3077 3075 3074 3076 3081 3079 3073 3073 3069 3070 3072 3073 3075 3082 3084 3089 3092 3098 3103 3109 3113 3116 3117 3123 3129 3134 3140 3145 3148 3156 3157 3150 3150 3149 3145 3149 3151 3154 3157 3161 3165 3169
3069 3068 3070 3065 3064 3065 3068 3068 3066 3068 3065 3065 3067 3068 3071 3074 3078 3081 3084 3086 3091 3095 3103 3107 3108 3113 3118 3125 3131 3134 3136 3145 3147 3147 3148 3145 3143 3142 3143 3146 3149 3152 3156 3162 3166
3063 3062 3058 3056 3055 3056 3058 3056 3058 3060 3061 3064 3064 3065 3065 3069 3074 3077 3078 3080 3085 3092 3099 3104 3107 3108 3114 3121 3124 3127 3137 3139 3139 3144 3148 3140 3140 3138 3139 3139 3143 3146 3151 3157 3162
3059 3056 3055 3051 3049 3049 3047 3050 3053 3059 3059 3062 3062 3062 3064 3066 3068 3069 3070 3077 3081 3087 3094 3100 3104 3106 3110 3109 3115 3122 3124 3129 3135 3136 3138 3142 3135 3137 3135 3135 3137 3143 3147 3153 3157
3054 3052 3049 3049 3050 3050 3049 3049 3051 3051 3058 3058 3058 3059 3063 3065 3062 3064 3064 3073 3076 3078 3083 3090 3098 3098 3100 3106 3111 3115 3118 3123 3126 3129 3132 3133 3128 3133 3134 3134 3138 3139 3144 3148 3152
3049 3046 3046 3043 3044 3043 3042 3043 3045 3046 3049 3051 3052 3054 3059 3060 3062 3058 3059 3063 3065 3069 3075 3082 3087 3092 3096 3099 3101 3103 3108 3114 3120 3125 3125 3129 3124 3130 3135 3137 3138 3139 3141 3143 3147
3047 3042 3040 3041 3040 3039 3038 3040 3041 3043 3042 3046 3044 3047 3048 3051 3055 3052 3051 3053 3057 3061 3067 3075 3079 3081 3081 3088 3095 3099 3102 3107 3112 3115 3118 3120 3118 3127 3132 3135 3136 3137 3137 3139 3143
3043 3041 3038 3037 3038 3037 3037 3039 3037 3036 3039 3040 3039 3038 3039 3045 3045 3045 3045 3045 3051 3055 3060 3065 3067 3074 3079 3085 3091 3095 3096 3100 3104 3110 3112 3116 3114 3122 3129 3131 3131 3130 3133 3135 3138
3040 3038 3036 3036 3035 3034 3032 3033 3035 3036 3035 3034 3036 3034 3033 3036 3036 3036 3037 3041 3045 3049 3052 3053 3059 3066 3072 3078 3085 3090 3092 3095 3098 3103 3106 3111 3111 3116 3125 3125 3127 3126 3126 3131 3135
3036 3034 3033 3034 3034 3033 3031 3029 3029 3029 3031 3033 3030 3029 3029 3029 3029 3031 3033 3037 3041 3044 3047 3050 3054 3060 3064 3071 3080 3083 3082 3089 3093 3096 3101 3103 3108 3112 3118 3121 3124 3127 3129 3129 3132
Wind_Speed
22 23 24 25 25 25 25 25 25 25 25 24 23 23 22 21 20 20 17 16 22 20 17 13 9 7 12 3 9 14 14 10 18 13 20 19 6 6 2 4 11 10 12 20 26
23 24 24 25 25 25 25 25 25 25 25 24 23 22 22 20 19 17 17 19 23 23 19 16 13 12 15 5 6 16 23 11 12 11 14 7 5 2 4 8 3 9 18 24 22
21 23 24 25 25 25 25 25 25 24 24 24 23 23 21 20 18 14 16 18 21 24 22 20 15 15 15 7 3 7 9 18 19 16 8 5 7 2 5 8 4 11 19 22 20
20 20 21 22 23 24 25 25 25 25 24 24 23 22 22 20 12 9 13 17 21 24 27 23 18 18 14 7 7 15 10 20 22 12 5 12 5 2 2 5 3 6 13 16 19
20 20 21 21 21 22 22 23 24 25 24 25 24 23 23 23 8 16 13 16 22 26 29 27 22 18 11 3 14 8 27 16 14 9 14 15 12 2 6 7 1 6 15 14 17
22 22 21 22 21 21 21 21 21 24 25 24 25 26 26 22 11 16 14 18 20 26 29 28 23 19 16 9 5 6 24 15 16 13 16 17 14 8 8 4 3 10 19 16 16
24 23 23 23 22 21 21 20 21 21 23 24 25 27 30 10 11 13 16 22 22 26 30 33 27 20 18 13 4 6 18 19 19 18 21 12 10 10 3 5 3 11 18 18 16
26 26 25 24 23 21 20 21 21 19 21 23 25 26 29 13 19 24 18 18 24 28 29 33 27 24 21 15 12 8 15 25 21 22 19 8 12 10 5 3 6 9 15 18 16
25 25 26 26 25 22 20 21 21 20 20 21 24 27 22 18 19 16 18 15 19 27 26 30 28 27 23 19 15 2 14 21 28 25 16 13 12 13 8 4 8 10 12 16 16
27 26 24 24 26 24 21 21 21 21 21 21 24 22 17 7 9 16 19 16 18 21 18 27 30 32 29 23 19 2 3 30 26 22 18 19 12 12 10 7 5 9 11 13 12
29 28 26 23 23 23 20 20 19 22 26 26 21 20 4 17 16 16 21 20 22 18 19 28 35 39 34 30 22 9 1 29 20 15 21 20 15 14 14 14 10 6 11 11 11
30 28 26 23 22 20 20 22 22 26 30 29 26 27 21 15 18 20 19 28 31 29 20 28 38 39 36 32 25 17 13 21 19 24 25 18 22 22 15 12 7 4 6 8 12
29 29 26 21 21 19 19 21 21 27 32 32 25 28 16 32 28 24 26 25 34 30 29 34 37 35 35 35 26 25 21 20 28 19 26 20 24 27 22 20 19 13 7 7 5
30 28 28 21 18 17 19 17 15 20 21 31 24 24 28 32 37 27 30 26 35 35 31 30 30 29 35 36 28 26 27 23 23 21 23 27 17 32 29 26 30 21 17 12 10
31 28 26 26 13 16 19 14 11 10 5 6 9 12 23 38 8 38 32 32 29 36 31 31 34 29 24 40 29 34 27 25 21 30 29 18 13 21 36 33 37 26 20 16 9
29 27 27 22 18 18 19 18 15 7 9 4 9 11 21 39 20 30 33 29 21 31 26 31 20 29 35 35 29 33 30 24 26 22 19 29 31 35 29 35 40 28 22 19 15
30 24 25 20 12 19 19 17 12 10 9 4 11 16 17 32 33 32 38 42 35 36 36 29 31 25 26 30 28 29 30 15 4 4 9 34 29 30 24 22 28 23 20 17 16
29 27 19 17 18 20 20 20 15 9 27 12 5 14 25 26 43 32 40 43 40 34 32 32 24 36 29 35 30 33 34 21 6 4 10 18 20 32 30 21 26 23 18 18 18
29 23 16 15 20 22 26 28 19 13 9 13 18 8 25 22 20 35 39 44 46 43 33 31 26 29 34 31 32 33 29 33 29 29 10 20 21 26 26 19 20 31 30 26 22
29 21 8 16 22 22 30 35 32 27 12 6 5 3 4 14 16 32 40 39 43 45 37 22 24 32 28 28 32 30 30 23 16 7 5 14 19 24 17 26 22 27 28 31 25
27 20 8 16 21 28 33 33 39 30 22 11 10 15 10 11 3 9 35 30 38 42 42 37 25 27 29 33 33 37 31 33 19 21 8 3 18 24 21 21 24 22 22 27 28
24 20 15 16 10 13 26 26 30 35 30 25 30 29 22 13 16 9 7 24 32 40 44 44 28 39 33 32 31 33 37 33 30 17 11 26 36 24 13 7 15 15 21 22 23
27 21 10 11 12 15 16 17 22 23 21 17 20 23 20 15 13 6 10 15 15 35 48 46 43 24 29 37 35 29 40 38 33 32 30 10 33 29 14 14 11 11 20 28 26
25 22 19 5 10 9 15 14 14 16 18 16 24 22 25 24 11 15 17 15 23 17 40 46 45 46 31 31 28 28 29 44 37 30 29 34 37 24 17 18 16 18 15 24 27
20 16 18 11 8 10 2 7 8 10 7 7 6 9 22 21 24 26 28 26 14 15 24 38 52 48 44 42 34 22 22 41 42 44 32 39 43 37 25 15 13 17 28 22 21
21 17 16 13 12 14 12 6 9 6 12 9 10 6 3 22 18 24 24 29 17 14 17 30 41 47 45 40 37 33 32 26 49 42 43 39 40 39 23 17 23 6 11 29 20
14 13 18 16 11 9 13 10 2 8 3 7 15 10 5 10 16 22 22 25 19 13 10 15 22 36 39 39 38 35 37 32 28 45 42 40 43 42 30 31 18 14 10 25 26
Wind_Direction
277 275 275 275 274 273 273 273 273 274 275 275 275 275 273 268 263 259 249 238 231 236 234 226 233 267 281 269 337 328 296 17 139 160 137 142 159 124 343 355 111 153 187 171 159
283 282 279 278 277 276 275 274 274 275 276 276 276 275 274 271 263 255 244 231 221 220 221 223 222 244 256 224 300 292 288 272 168 180 151 152 314 317 57 69 115 161 166 175 165
286 283 282 281 279 277 275 275 274 273 273 274 274 275 274 272 269 255 239 224 221 214 218 224 227 243 253 256 286 306 265 162 170 168 172 210 165 138 61 77 57 177 170 177 173
293 290 287 284 281 278 276 274 272 269 269 269 270 271 271 269 270 251 231 223 215 210 210 221 224 239 253 268 340 319 201 158 158 163 142 137 174 138 6 31 50 160 172 174 176
295 293 290 288 286 284 279 274 272 269 266 264 265 266 266 263 250 253 224 215 212 209 205 216 221 236 243 293 22 126 152 143 153 150 136 149 188 317 198 283 107 167 183 180 180
293 292 291 290 288 286 284 280 274 268 265 262 260 261 262 258 262 240 225 211 213 210 200 208 209 231 237 246 346 2 168 154 154 142 149 168 171 235 219 254 191 162 180 181 179
291 290 289 289 288 286 283 281 277 273 264 261 259 257 257 231 256 244 228 211 213 209 203 203 214 218 234 235 234 348 177 159 156 163 168 188 182 235 315 219 185 167 181 175 168
293 290 288 287 286 284 283 279 275 272 267 260 258 259 254 239 232 237 225 224 221 202 204 203 212 219 229 235 255 295 166 159 166 171 181 212 193 236 264 206 207 173 176 171 175
295 291 290 287 284 282 281 279 274 269 265 262 256 257 272 254 238 240 243 218 206 196 198 207 210 215 220 232 255 185 169 182 172 190 184 202 191 230 249 232 212 188 169 174 169
299 296 292 289 285 281 281 277 277 269 261 255 257 257 266 182 196 217 223 211 200 184 192 198 202 212 215 218 227 158 14 174 166 188 209 209 223 228 231 227 220 198 189 178 179
300 296 293 293 288 283 278 273 268 265 253 246 248 253 201 180 199 191 204 204 191 181 204 189 200 209 210 212 219 196 5 172 196 215 214 220 236 244 230 223 218 215 221 196 199
307 302 295 290 288 286 273 265 262 264 261 254 249 255 225 217 216 171 186 191 183 192 195 193 209 205 206 214 223 221 218 227 234 208 214 229 244 232 238 244 217 208 214 216 208
309 305 301 294 282 281 271 263 265 271 279 266 255 249 229 218 222 200 186 201 190 193 199 204 208 202 210 214 220 222 225 231 231 229 217 232 214 216 232 250 241 233 244 239 245
307 305 302 296 284 268 264 265 270 275 289 279 267 249 227 210 223 197 201 200 197 199 199 217 201 208 213 217 215 230 223 229 250 233 206 231 226 223 226 238 237 235 234 231 232
304 303 300 297 286 257 252 251 254 268 304 270 233 220 211 214 240 196 196 198 215 199 197 211 211 204 211 220 209 227 217 242 256 261 222 216 232 261 219 232 236 228 227 226 211
304 300 294 289 291 255 244 241 232 229 250 278 238 216 206 199 202 187 189 203 223 197 217 218 206 216 213 212 217 223 237 250 263 234 210 219 216 242 232 236 232 232 224 224 210
304 297 293 288 270 262 237 225 202 213 221 240 220 224 224 206 194 190 191 199 203 200 213 213 221 212 220 220 213 227 237 253 261 221 218 236 221 236 245 252 231 231 228 204 212
309 299 290 289 259 245 233 205 213 227 221 220 248 231 212 210 200 190 193 203 208 206 210 217 224 214 209 218 218 224 232 222 182 197 244 235 224 247 254 246 226 233 226 197 192
322 313 294 265 242 233 230 213 213 183 227 268 253 256 211 214 218 194 201 206 207 207 205 215 229 212 213 211 216 223 233 239 239 252 273 277 266 267 252 229 241 228 223 210 200
325 330 271 219 223 224 225 222 213 216 229 263 329 97 170 196 220 210 206 214 215 214 214 214 230 217 210 219 225 234 227 230 214 206 229 262 266 269 287 242 217 214 211 211 204
327 324 259 214 219 222 221 226 229 211 255 282 235 306 289 299 302 243 224 214 215 216 217 219 226 224 218 222 225 225 229 232 235 231 176 240 271 260 276 228 204 211 203 209 207
325 314 293 251 230 223 248 255 248 240 251 273 265 269 283 298 303 305 258 219 216 212 212 217 219 233 224 224 227 233 230 232 225 223 223 235 256 241 261 223 191 222 218 213 221
322 317 297 252 251 245 240 230 246 265 278 277 273 266 254 257 300 265 240 196 206 205 212 213 214 218 238 236 232 237 231 229 237 238 242 228 248 261 269 196 261 255 239 225 221
320 321 310 222 220 276 285 257 279 264 276 281 273 267 245 249 256 262 252 225 195 192 205 208 214 215 223 226 227 229 237 225 228 225 234 242 251 235 242 248 256 242 254 241 219
316 311 308 287 270 272 298 262 298 298 243 334 260 259 244 244 258 248 248 233 229 192 203 210 213 217 223 232 232 230 240 225 225 232 231 242 249 242 255 257 235 257 241 238 218
300 298 299 310 325 295 353 271 260 247 358 29 350 344 170 212 222 230 239 237 223 196 184 197 209 217 219 225 232 237 241 241 226 232 231 236 247 249 244 251 257 247 245 214 237
317 300 298 308 313 330 337 6 256 352 135 8 344 334 261 190 205 222 232 230 220 203 153 169 197 210 213 220 226 235 238 241 237 230 228 232 237 241 246 247 254 237 244 225 233